Location: Sobotiste
(48.7170°N, 17.4000°E)
Time: 10:49:16
(UTC+02:00)

CAS-6 - Pass Details

Date: 16 March 2026
Orbit: 601 x 618 km, 97.8° (Epoch: 18 April)

Event Time Altitude Azimuth Distance (km) Brightness Sun altitude
Exits shadow 21:00:10 18° 12° (NNE) 1,509 ? -29.2°
Drops below altitude 10° 21:01:25 10° 2° (N) 1,958 ? -29.4°
Sets 21:03:43 0° 354° (N) 2,868 ? -29.7°
